MysteryTwister C3
NUMBER OF ACTIVE MEMBERS:

9625
Follow us: Facebook Twitter
 



Level I Challenges (82)

Page 1 of the challenges in Level I, ordered by date posted (the most recent appear first).

Monoalphabetic Substitution

[esslinger-02] - 470 users already solved this challenge, 153 are working on it.
 
 
 

This is a famous speech of a German soccer star - including a mistake. The codeword consists of 2 words, one after the other with no space. The first is the password used to encrypt the plaintext, and the second is the mistake in the decrypted text. (The plaintext is in German.)
Read more...

Click here to get to the corresponding forum topic to share your opinion.
Click here to download the challenge.

Author: This email address is being protected from spambots. You need JavaScript enabled to view it.
Published on: 2010-10-14 13:30
Maximum number of attempts for this challenge: 15

All successful users of this challenge

Rank User (#470) Achieved points (Global score) y-m-d - h:m:s

Nobody (nobody) 200 (40618) 2010-10-14 13:35:19
Simon Jakob (simon.jakob) 200 (18714) 2010-10-15 01:30:50
No you (lolwhat) 133 (2124) 2010-10-16 17:46:26
John Smith (donnie) 133 (266) 2010-10-16 20:05:16
#5 Oliver Peters (Avian) 133 (266) 2010-10-16 20:09:00
#6 Roadrunner (rr) 133 (12702) 2010-10-16 22:52:17
#7 R H (BartS23) 133 (266) 2010-10-17 01:57:02
#8 Andreas J. Bathe (ajb) 133 (266) 2010-10-17 07:11:31
#9 Thomas Hansen (norot) 133 (266) 2010-10-17 09:26:10
#10 Michael Ludwig (michaelll) 125 (258) 2010-10-17 13:37:08
#11 Claude Laveaux (claude.laveaux) 125 (14504) 2010-10-17 14:01:57
#12 Colin Benner (Colin) 125 (1413) 2010-10-17 15:03:08
#13 Christian Landvogt (bailli) 125 (250) 2010-10-17 15:33:31
#14 Marcus Eichmüller (Leus) 125 (258) 2010-10-17 17:38:10
#15 Ralf Stephan (rwst) 125 (25229) 2010-10-17 17:50:23
#16 Floyd Hopes (floydhopes) 125 (250) 2010-10-17 18:25:33
#17 a b (fabulous) 125 (250) 2010-10-17 20:36:36
#18 Stephan Gross (okura) 125 (351) 2010-10-17 22:26:19
#19 Daniel Demmler (dd) 125 (125) 2010-10-17 22:37:27
#20 Wonko the Sane (Wonko) 125 (250) 2010-10-18 01:39:50
#21 Thomas Gonda (TomG) 125 (36291) 2010-10-18 11:05:19
#22 Michael Schöller (swtrse) 125 (350) 2010-10-18 11:19:52
#23 J Br (j.br) 125 (3242) 2010-10-18 12:43:33
#24 Tom Erlang (ter85) 125 (1019) 2010-10-18 12:46:16
#25 Benjamin Jemlich (pcgod) 120 (1858) 2010-10-18 13:43:29
#26 Jan Kattelans (JanKat) 120 (245) 2010-10-18 13:45:38
#27 Ernst Müller (MysteriusM) 120 (120) 2010-10-18 14:51:55
#28 Armin Hornetz (Calisan) 120 (245) 2010-10-18 15:02:57
#29 Johannes Krupp (nescio) 120 (245) 2010-10-18 15:24:00
#30 Ben H (benh) 120 (535) 2010-10-18 15:28:55
#31 Jascha Bohnet (DCore) 120 (245) 2010-10-18 15:39:49
#32 Christian Winkel (nordlichtHH) 120 (240) 2010-10-18 17:07:02
#33 David Penack (Qvist) 120 (348) 2010-10-18 17:23:15
#34 Arnold Sendler (Tschighor) 120 (1105) 2010-10-18 18:03:17
#35 Carsten Lenz (kAyCeE80) 120 (460) 2010-10-18 19:26:33
#36 Gilbert Schuster (gil) 120 (245) 2010-10-18 20:22:59
#37 Markus Barwig (Dipol) 120 (240) 2010-10-18 20:30:17
#38 Lam Er (xxlamexx) 120 (240) 2010-10-18 20:40:38
#39 pratipistor (pratipistor) 120 (245) 2010-10-18 21:37:46
#40 Axel Wagner (awag) 120 (240) 2010-10-18 21:41:57
#41 FUgaRU (FUgaRU) 120 (240) 2010-10-18 23:46:44
#42 Hermann Lorenz (gmorek) 120 (240) 2010-10-18 23:55:18
#43 Jan-Hendrik Schöler (mystjhs) 120 (240) 2010-10-19 01:19:54
#44 Sebastian Steinmann (teodoc) 120 (5594) 2010-10-19 02:08:06
#45 Timo Flöttmann (dancey) 120 (240) 2010-10-19 11:47:35
#46 dskajgheri eurzcn (dskajgheri) 120 (240) 2010-10-19 12:52:12
#47 Hans Wurst (LordShaggynator) 117 (242) 2010-10-19 14:00:05
#48 Mr Anonym (the_ettin) 117 (234) 2010-10-19 14:28:45
#49 Sven Hagemann (svehag) 117 (237) 2010-10-19 14:30:53
#50 Philipp Berger (ThE_-_BliZZarD) 117 (354) 2010-10-19 16:30:06
#51 Jascha Koch (yosh) 117 (2201) 2010-10-19 18:46:48
#52 Michael Grau (MiG) 117 (242) 2010-10-19 20:14:02
#53 Martin Schubert (scoob) 117 (351) 2010-10-20 09:12:53
#54 Joachim Protze (joschi) 114 (4877) 2010-10-20 14:04:40
#55 Anibal Kürekci (ak187) 114 (1076) 2010-10-20 23:52:13
#56 Sebastian Roekens (cyphos) 114 (228) 2010-10-21 10:45:17
#57 Mark Weber (mark93) 114 (247) 2010-10-21 11:53:47
#58 Michail Pokryschkin (micpok) 113 (766) 2010-10-22 10:13:39
#59 Dirk Werner (hudray) 111 (933) 2010-10-22 15:04:27
#60 Ansgar (Ansgar) 111 (236) 2010-10-22 16:21:58
#61 Thomas Mattel (Tom) 111 (2462) 2010-10-22 21:11:48
#62 Thomas Loddenkemper (loddi) 110 (243) 2010-10-23 18:49:11
#63 Grinse Katze (Grinsekatze) 109 (964) 2010-10-24 13:47:24
#64 Raistlin (Majere) 109 (352) 2010-10-24 22:18:53
#65 Removed (prodigy) 109 (109) 2010-10-24 23:06:46
#66 Matthias Rottmann (mr66) 109 (594) 2010-10-25 12:44:44
#67 Christoph Orth (orthy) 108 (108) 2010-10-25 15:36:18
#68 Christof Kleber (Loki) 108 (6051) 2010-10-25 17:07:56
#69 Hannes Kremmer (HannesKremmer) 108 (932) 2010-10-25 20:57:22
#70 H. Gregor Molter (cyberdeck) 108 (608) 2010-10-26 14:47:33
#71 Daniel Kovacic (vimix) 108 (336) 2010-10-26 20:58:00
#72 Jörg-Bernd Linnhoff (joberlin) 108 (661) 2010-10-27 12:32:55
#73 Stefan Kühne (subROUTINE) 107 (3595) 2010-10-27 14:37:03
#74 Dennis Heitmann (dennisheitmann) 107 (349) 2010-10-27 16:06:35
#75 Armin Krauss (argh) 107 (185115) 2010-10-27 23:44:13
#76 Martin Kreis (hollemann) 106 (323) 2010-10-29 23:01:34
#77 Markus Brehm (almarkus) 106 (216) 2010-10-30 16:48:02
#78 David (aki321) 105 (27482) 2010-11-01 13:32:35
#79 Gary Hawk (Highlander) 105 (631) 2010-11-03 09:21:15
#80 Bernd Freise (Xanhem) 104 (1154) 2010-11-06 00:13:30
#81 Stephan Schreiber (Zerberus) 104 (524) 2010-11-07 07:15:42
#82 Hans Schuell (hschuell) 104 (2194) 2010-11-07 17:53:58
#83 Carsten Baum (crashti) 104 (1135) 2010-11-08 11:10:46
#84 Ulrich Armbrüster (uarmbruester) 104 (7987) 2010-11-08 17:24:37
#85 Marion Haller (Mary-on) 104 (314) 2010-11-08 21:35:48
#86 Alexander Schneider (schnibbler) 104 (208) 2010-11-09 22:34:41
#87 D Döner (ac715) 104 (313) 2010-11-10 19:11:46
#88 Lars Beckmann (larsbeck) 103 (518) 2010-11-11 21:20:26
#89 Nils Achim Lacke (Babbage) 103 (618) 2010-11-13 14:23:32
#90 Michael Möller (michaelm) 102 (173129) 2010-12-01 21:50:28
#91 Max Mustermann (MustermM) 102 (6661) 2010-12-03 15:46:02
#92 Alex K. (yellowred) 102 (204) 2010-12-08 19:39:27
#93 Hans Rudolf (mutabor) 101 (3015) 2011-01-04 17:58:31
#94 ingo (ingo) 101 (712) 2011-01-04 20:52:42
#95 Wolfgang Weisser (wowmyst) 101 (33108) 2011-01-07 18:33:12
#96 Sebastian (seb) 101 (709) 2011-01-15 18:43:41
#97 Paula Olsen (paol) 101 (825) 2011-01-31 01:09:37
#98 Florian Rüchel (Javex) 101 (721) 2011-01-31 01:51:18
#99 Christine Welsch (krawallchrischtl) 101 (809) 2011-02-04 18:57:07
#100 Jay Bee (jaybee) 101 (1926) 2011-02-07 22:44:58
#101 Fabian Bendun (benfa) 101 (8697) 2011-02-24 21:59:07
#102 Hans Müller (hanschen) 101 (404) 2011-02-28 08:22:35
#103 Christian Nobel (Nobelix) 101 (503) 2011-03-18 12:43:00
#104 rho (rho) 101 (303) 2011-04-02 01:12:35
#105 j.h. (haegarq) 101 (15252) 2011-04-11 16:25:50
#106 Sepp Maier (smai) 101 (1898) 2011-04-17 02:33:28
#107 Case (Case) 101 (505) 2011-04-17 13:49:49
#108 Wombat (Wombat) 101 (5822) 2011-04-23 15:19:32
#109 Marcin Zawadzki (harry007) 101 (3012) 2011-04-29 21:18:23
#110 Egon Hamburger (Seehase) 101 (3445) 2011-05-01 16:16:25
#111 Marc Schmidbauer (BrotInGefahr) 100 (404) 2011-05-08 01:42:48
#112 Muendo (muendo) 100 (3501) 2011-05-08 08:28:15
#113 mad maxx (madmaxx) 100 (300) 2011-05-10 22:17:50
#114 Holti (Holti) 100 (6035) 2011-05-25 19:02:48
#115 thojocro@zehnminutenmail.de (thojocro@zehnminutenmail.) 100 (401) 2011-06-08 00:34:16
#116 Seth Kintigh (DarkFibre) 100 (79471) 2011-06-14 02:31:17
#117 The Killer (Killer) 100 (42393) 2011-06-17 20:41:59
#118 Maurice Parthier (bobthemaster) 100 (705) 2011-07-10 07:33:03
#119 Stefan Haas (stef_the_chef) 100 (4329) 2011-07-11 22:17:44
#120 Peter Mustermann (Gummiboot) 100 (60285) 2011-07-12 11:02:58
#121 Daniel Fretwell (fretty) 100 (30107) 2011-07-15 12:05:05
#122 J P (Cugu) 100 (513) 2011-07-19 22:13:36
#123 Robbt Neid (Das Tupel) 100 (9403) 2011-07-24 20:35:38
#124 Dano (Dano) 100 (14610) 2011-07-30 22:49:51
#125 dbuq (dbuq) 100 (22762) 2011-08-03 17:01:28
#126 Viktor (Veselovský) 100 (151602) 2011-08-12 20:57:52
#127 lbt (lbt) 100 (100) 2011-08-16 01:52:35
#128 Nicolas Golubovic (qll) 100 (14919) 2011-08-16 01:53:16
#129 Qinncade (Qinncade) 100 (2610) 2011-08-17 09:34:11
#130 h3po (h3po) 100 (20433) 2011-08-19 19:07:34
#131 Ph il (audioPhil) 100 (1935) 2011-08-22 23:42:41
#132 Lu Kas (DrunkenPanda) 100 (1835) 2011-08-22 23:43:07
#133 Horst Kevin (lordstege) 100 (1419) 2011-08-28 13:46:24
#134 J. M. (jomandi) 100 (113270) 2011-09-20 23:36:45
#135 Jay Kay (Merty) 100 (3726) 2011-09-25 14:39:46
#136 Anton Wendel (MoD) 100 (5679) 2011-09-28 20:14:29
#137 Gideon Knocke (0xff) 100 (601) 2011-10-13 23:58:41
#138 mister pinball (mister) 100 (200) 2011-10-15 08:09:04
#139 Christian Matt (Luy) 100 (9889) 2011-10-23 04:35:39
#140 Bart den Hartog (Bart13) 100 (118984) 2011-11-01 14:06:14
#141 Lassu Eger (Hun) (slowmouse) 100 (1118) 2011-11-27 12:47:48
#142 Dieter R (D0n Quix0rt) 100 (200) 2011-12-04 20:40:10
#143 Flo Geht_dich gar_nichts_an (flo) 100 (6271) 2011-12-11 02:01:47
#144 Michael Gürtler (michaelg) 100 (4128) 2011-12-15 16:57:35
#145 Nathan (Witten) 100 (25326) 2011-12-16 11:43:49
#146 Tom (kryptom05) 100 (100) 2011-12-27 15:12:42
#147 Matthias Schwarzkopf (MatzeAT) 100 (2967) 2012-01-03 15:09:53
#148 Sabrina Ryser (Sabse15) 100 (506) 2012-01-14 00:25:52
#149 Philipp Knapp (philipp312) 100 (3357) 2012-01-15 13:43:59
#150 Tom Tox (tox) 100 (17708) 2012-01-18 16:30:53
#151 astrid (nellli) 100 (500) 2012-01-31 14:20:08
#152 Michael Sommer (M1S) 100 (635) 2012-01-31 22:38:24
#153 Timo Culmann (TomCat73) 100 (801) 2012-02-08 21:53:30
#154 Simon S. (Simon) 100 (500) 2012-02-09 21:04:10
#155 Ulrich Dorobeck (Papageno) 100 (3827) 2012-02-11 15:15:25
#156 Hans Peter (hanspeter) 100 (52256) 2012-02-14 18:45:27
#157 John (Tiger) 100 (1505) 2012-02-21 00:10:17
#158 Benjamin Walter (Xemrox) 100 (701) 2012-02-26 14:50:46
#159 shaola (shaola) 100 (300) 2012-02-26 15:20:22
#160 Julia Boswell (jb_87) 100 (300) 2012-02-29 22:49:34
#161 Benne (post_ex0dus) 100 (601) 2012-03-01 12:25:25
#162 Sven Ebenfeld (twen) 100 (401) 2012-03-01 23:12:16
#163 Felix Mohr (winterwolf) 100 (2364) 2012-03-05 15:41:17
#164 Kurt Gebauer (Yokozuna) 100 (153663) 2012-03-05 21:49:49
#165 Dusan (xxdradus) 100 (40236) 2012-04-02 13:44:27
#166 H. Lautenschlager (helmi) 100 (32747) 2012-04-20 22:07:51
#167 Uli Dulli (Uli Dulli) 100 (1408) 2012-04-30 19:18:57
#168 Matthias Brand (cyberwoozle) 100 (1896) 2012-05-02 22:09:17
#169 Christof B. (beans90) 100 (9488) 2012-05-05 20:29:21
#170 captp (bdcht) 100 (5864) 2012-05-08 21:51:13
#171 Michel Van Caneghem (vancan) 100 (49719) 2012-06-04 17:08:32
#172 zuben c3 (zuben-c3) 100 (24853) 2012-06-05 11:13:40
#173 Bernd Klimaschewski (cryptonoob) 100 (1003) 2012-06-05 19:42:25
#174 Craig Martek (craigatron) 100 (500) 2012-06-11 00:18:36
#175 Daniel Richter (TheHiveMind) 100 (11147) 2012-06-13 14:04:10
#176 masam (jimboo) 100 (18687) 2012-06-18 17:02:43
#177 Peter Grosse-Hering (Peter) 100 (8097) 2012-06-26 11:46:27
#178 Sebastian Mederle (Thistle) 100 (1202) 2012-06-30 16:53:39
#179 John Simon (aquadraht) 100 (802) 2012-07-03 18:29:49
#180 Manfred Wurm (Tschabobo) 100 (8835) 2012-07-06 18:47:32
#181 Erwin Brenner (Ometheon) 100 (500) 2012-07-06 19:59:20
#182 Sebastian Slupina (Grandwizard) 100 (10866) 2012-07-13 03:17:07
#183 Chakay (Chakay) 100 (900) 2012-07-23 01:39:36
#184 Stepan (m1sterx) 100 (19165) 2012-07-24 19:42:01
#185 Urs Gysler (Sansibar) 100 (3269) 2012-07-26 22:13:57
#186 Max (131x) 100 (1659) 2012-08-08 00:14:32
#187 Victoria Fehr (Rika) 100 (1472) 2012-08-15 15:23:31
#188 Ignacio (Moebiusar) 100 (7390) 2012-08-19 01:25:52
#189 RPH (derichard) 100 (27044) 2012-09-03 21:38:41
#190 tuighin (tuighi) 100 (609) 2012-09-05 21:16:53
#191 KW (qwer*) 100 (13963) 2012-09-06 21:19:01
#192 Hank (hanky) 100 (22859) 2012-09-11 22:12:53
#193 Fitzcarraldo (fitzcarraldo) 100 (907) 2012-09-14 00:48:55
#194 Harry (Schwabenbambi) 100 (2409) 2012-09-17 17:02:37
#195 Hannes (Hartmann) 100 (8680) 2012-09-20 22:46:03
#196 Benny (Kingombo) 100 (3663) 2012-09-22 23:12:01
#197 Martina (Nikita) 100 (3863) 2012-09-24 00:04:48
#198 Paul Pantea (Soarele007) 100 (2695) 2012-10-21 18:28:05
#199 Alexander Dockhorn (Descartes) 100 (1200) 2012-10-24 12:59:19
#200 Christian (md6) 100 (1404) 2012-10-27 20:22:20
#201 Lukas Juhrich (ljuhrich) 100 (5453) 2012-10-31 21:27:11
#202 The Enigma (enigma) 100 (14336) 2012-11-04 01:09:08
#203 Julia Werdelmann (jw) 100 (10407) 2012-11-11 13:25:47
#204 George (Theofanidis) 100 (109124) 2012-11-19 13:38:37
#205 Jan Temme (JaT3) 100 (11694) 2012-12-09 03:34:18
#206 Gary Lee (garylee) 100 (2171) 2012-12-09 15:20:07
#207 Jan (Yazoh) 100 (1000) 2012-12-29 22:58:56
#208 Roger (gonix) 100 (901) 2013-01-01 18:29:05
#209 Thomas Hahn (4OsoCg31XYcO) 100 (1703) 2013-01-09 23:27:12
#210 kevin shaw (steggily) 100 (2298) 2013-01-16 17:39:33
#211 Iain Sharp (WoodenHedgehog) 100 (2196) 2013-01-16 17:40:56
#212 Daniel Hofer (Dada963) 100 (1001) 2013-01-27 15:52:23
#213 Michal (misoxxx) 100 (1710) 2013-02-05 18:46:06
#214 Snake (snk) 100 (77889) 2013-02-24 17:29:34
#215 Frans (fransl) 100 (2233) 2013-02-28 13:38:29
#216 Franc Marx (francmarx) 100 (900) 2013-03-12 09:50:02
#217 Hans Joachim Girulat (joregi) 100 (35017) 2013-03-13 23:05:03
#218 Velko Nikolov (staafl) 100 (13467) 2013-03-28 18:04:58
#219 Luigi Tomelli (archstanton) 100 (108345) 2013-04-01 15:08:27
#220 mk (bilbobeutlin) 100 (12340) 2013-04-03 22:43:14
#221 Ramon Rojas (superme) 100 (3409) 2013-04-14 05:04:22
#222 Petra (humppapenguin) 100 (3872) 2013-04-17 15:21:12
#223 swarmspider (swarmspider) 100 (4528) 2013-04-18 13:50:25
#224 Oliver Schneider (cenn81) 100 (1100) 2013-04-22 23:32:11
#225 Rolf (Dupre) 100 (700) 2013-04-23 13:09:51
#226 Almut (problelmo) 100 (45992) 2013-04-23 21:04:04
#227 Bernhard Gruber (bgr) 100 (22889) 2013-04-24 11:21:03
#228 Michael Reich (Walli) 100 (2288) 2013-04-24 14:02:34
#229 Frederik (Freed) 100 (900) 2013-04-24 21:37:30
#230 Stefan (sdn) 100 (5137) 2013-04-25 14:11:25
#231 Step (l0rdp3rth) 100 (836) 2013-04-25 14:33:54
#232 Philipp (Kohai) 100 (2208) 2013-04-25 15:59:54
#233 Brian Tawney (btawney) 100 (500) 2013-04-27 23:33:22
#234 Y (Yoshio) 100 (2194) 2013-04-28 14:51:31
#235 HE (hendeng) 100 (1600) 2013-05-03 15:57:03
#236 Felix (Flix) 100 (13712) 2013-05-06 17:19:25
#237 Jörg Schwarzwälder (secuso) 100 (2125) 2013-05-08 22:46:35
#238 Georgius Stolte (HazmatsFear) 100 (15671) 2013-05-11 08:58:46
#239 Hansemann (hansemak) 100 (3522) 2013-05-13 16:46:29
#240 Fuge (fugitech) 100 (917) 2013-05-19 23:04:04
#241 Alexander Buerger (a.buerger) 100 (2332) 2013-05-23 14:33:15
#242 CryptY (Grompf) 100 (2880) 2013-05-28 17:26:17
#243 Peter Krause (H.M.Voynich) 100 (900) 2013-06-04 15:37:02
#244 E.T (Ertheb) 100 (78180) 2013-06-13 11:26:23
#245 Friedemann (friede) 100 (3599) 2013-06-26 17:33:00
#246 Steve (Samacian) 100 (23804) 2013-06-28 15:23:05
#247 Laura (Weltenwandlerin) 100 (1004) 2013-06-29 21:16:28
#248 Sascha (DoctorHell) 100 (1305) 2013-07-09 23:08:43
#249 Vlatiha Romanova (Vlatiha) 100 (10323) 2013-07-15 16:17:06
#250 Philipp Hammer-Pohlau (phase2) 100 (17981) 2013-07-18 09:15:02
#251 Gronas (gronas) 100 (2667) 2013-07-21 18:52:12
#252 Forrest Gump (Polyphem) 100 (38763) 2013-07-24 23:07:56
#253 zahir mohsen moradi (ariobarzan) 100 (99757) 2013-08-05 21:29:03
#254 Em Doulgerakis (Greko) 100 (124033) 2013-08-08 14:45:30
#255 Andreas H. (Cyrpius) 100 (2666) 2013-08-15 20:36:20
#256 Stefan Schenk (schenkst) 100 (300) 2013-08-17 00:24:50
#257 Sebastian Kluge (zappo) 100 (1801) 2013-09-02 18:04:31
#258 Andreas Wolff (timberwolff) 100 (1340) 2013-09-08 12:19:35
#259 Alexander (cruachan) 100 (16051) 2013-09-14 01:42:56
#260 Gergely Simon (george314) 100 (16555) 2013-09-27 01:10:57
#261 Erich (ErichSt) 100 (4862) 2013-09-29 17:39:29
#262 Jens (McStryke) 100 (1600) 2013-10-23 21:27:20
#263 netzfritze (netzfritze) 100 (700) 2013-10-25 10:58:36
#264 Boris (Kaasu) 100 (16566) 2013-10-31 16:36:31
#265 Alexx (Nukualofa) 100 (100) 2013-10-31 20:44:22
#266 Hannes Nötzli (Faust) 100 (4781) 2013-11-07 14:44:08
#267 Bernd (Bughunter42) 100 (1100) 2013-11-14 11:41:24
#268 Zakk (zjacreman) 100 (500) 2013-11-19 05:36:28
#269 Claudi (bucaneros) 100 (701) 2013-11-24 19:43:34
#270 pablo (cooltrain) 100 (1500) 2013-11-26 21:05:18
#271 qwertz (pA8PFj6BGpZlUN0ddLYq) 100 (800) 2013-11-29 16:17:40
#272 Jim Gillogly (Scryer) 100 (21260) 2013-12-01 21:37:16
#273 artmagic (artmagic) 100 (6298) 2013-12-05 16:22:20
#274 Francisco Moraes (fmoraes) 100 (90044) 2013-12-10 17:46:52
#275 Mike (mike123) 100 (500) 2013-12-11 22:40:55
#276 cworstell (ace2) 100 (4870) 2013-12-12 04:49:42
#277 George Lasry (george4096) 100 (299488) 2013-12-12 17:02:19
#278 Alain (Integral) 100 (207924) 2013-12-14 19:56:07
#279 Kim H. S. (tenchijin) 100 (25468) 2013-12-26 08:20:40
#280 daskleine (daskleine123) 100 (2148) 2013-12-28 19:49:47
#281 Csaba Fitzl (csaby) 100 (6696) 2013-12-29 22:15:43
#282 Bertold (bk) 100 (9673) 2013-12-30 15:05:42
#283 Pavel (haw) 100 (22728) 2014-01-01 20:14:30
#284 Sebastian Liebl (Basti van Tasti) 100 (2548) 2014-01-05 11:35:06
#285 Stefan Reek (GeneralFailure) 100 (300) 2014-01-12 18:57:49
#286 Felix Eckardt (Felck) 100 (3464) 2014-01-20 00:09:22
#287 Merlin de la Haye (Merlin) 100 (700) 2014-01-20 18:21:04
#288 Dominik (Pistol) 100 (700) 2014-01-21 01:18:05
#289 Josef Gillhuber (jogimi51) 100 (2446) 2014-01-22 00:29:16
#290 Marcel (bene1512) 100 (20896) 2014-01-30 19:56:12
#291 Flo (0knowledge) 100 (902) 2014-02-02 22:19:07
#292 Flo (sealth) 100 (13472) 2014-02-08 21:27:01
#293 Nofre Tete (noffi) 100 (21921) 2014-02-09 18:43:56
#294 schloenz (shlnz) 100 (900) 2014-02-10 00:21:34
#295 Mepo (Marshall) 100 (1000) 2014-02-11 19:59:19
#296 Sascha (The Hoddich) 100 (4350) 2014-02-21 12:33:50
#297 Joerg Schaeffler (DrAcula) 100 (2948) 2014-03-06 11:53:28
#298 Karl Schutt (günter) 100 (41550) 2014-03-23 18:50:52
#299 Siggi Kraus (Kruxi) 100 (701) 2014-04-24 20:51:09
#300 Joe (IlmJoe) 100 (2938) 2014-05-06 14:48:54
#301 Matthias (mrcreosote) 100 (1100) 2014-05-16 15:08:28
#302 Thomas Schmucker (dg) 100 (26066) 2014-05-30 15:29:30
#303 Simone (Momo) 100 (5478) 2014-06-07 22:17:12
#304 HerrVo (HerrVo) 100 (1000) 2014-06-10 17:49:01
#305 Jian Wen (XxWappenxX) 100 (4048) 2014-06-16 15:35:55
#306 Armin Eckert (eckert100@gmail.com) 100 (900) 2014-06-21 19:17:53
#307 Julia Bernotat (El Greco ) 100 (81129) 2014-07-16 22:08:16
#308 julius gaius (julius) 100 (25581) 2014-07-19 18:04:26
#309 Hughes (hughes) 100 (7925) 2014-07-27 17:11:58
#310 Robert (rm) 100 (56475) 2014-07-31 23:48:50
#311 Tiloan (Tiloan) 100 (3840) 2014-08-17 12:30:45
#312 Andreas Frerichs (Ossili) 100 (33266) 2014-08-22 09:22:36
#313 Ekrem Aydin (Eko115) 100 (1105) 2014-08-30 22:32:29
#314 Peter Lustig (arsen) 100 (2838) 2014-09-01 07:36:53
#315 Isabella (Isa) 100 (4235) 2014-09-01 19:24:10
#316 Dmitry (DmitryMikhailov) 100 (1300) 2014-09-05 19:31:49
#317 Falk Fleischer (fafl) 100 (200) 2014-09-09 14:52:46
#318 Kerstin (herzchen412) 100 (3937) 2014-09-17 12:08:15
#319 testgrr (testgrr) 100 (3940) 2014-10-05 11:35:50
#320 Lane Williams (planetlane) 100 (23948) 2014-10-18 23:28:19
#321 Señor Saturn (senorsaturn) 100 (3344) 2014-10-20 23:27:49
#322 jej (stationz) 100 (4939) 2014-11-09 14:07:42
#323 HolgerK (HolgerK) 100 (25776) 2014-11-21 20:21:30
#324 Tim Fink (Magellan) 100 (4876) 2014-12-12 22:03:25
#325 ab (ababab) 100 (200) 2014-12-16 22:30:23
#326 Danny Higgins (hamster147) 100 (32806) 2014-12-28 10:02:47
#327 DirkS (Dustman) 100 (8479) 2014-12-29 12:47:26
#328 Nik Maks (nik) 100 (1201) 2015-01-02 09:39:41
#329 Kai Ludwig (TalentRaspel) 100 (15704) 2015-01-05 00:20:47
#330 Rainer Zufall (kiekuk) 100 (56786) 2015-02-22 20:28:37
#331 WF (f077) 100 (6874) 2015-02-23 18:36:16
#332 chris_3stones (3stones) 100 (37759) 2015-02-28 10:31:49
#333 c u (chuiuiui) 100 (100) 2015-03-27 23:57:57
#334 Brian Kieslich (briank) 100 (6733) 2015-04-03 14:25:36
#335 S (Dingo_the_BB) 100 (6534) 2015-04-05 21:06:02
#336 Creat1veM1ind (sokrates) 100 (2639) 2015-04-08 21:20:26
#337 Mike (Buckte) 100 (1621) 2015-04-11 22:56:23
#338 Martin Schulz (Kristallseele) 100 (2122) 2015-04-15 16:12:42
#339 Gabriel (Gabriel) 100 (400) 2015-04-15 19:35:22
#340 Kurkowski (ThomasK) 100 (2327) 2015-05-02 09:57:30
#341 Mehmet Adali (mehmetadali) 100 (2620) 2015-05-14 00:11:45
#342 partamier (yann) 100 (5435) 2015-05-15 14:56:41
#343 Ethan (EESearch) 100 (3925) 2015-05-22 20:03:57
#344 Michael Ammon (Ammonym) 100 (7719) 2015-05-24 02:35:27
#345 sam (sam) 100 (800) 2015-06-10 15:46:00
#346 Defekt75 (Defekt75) 100 (4325) 2015-06-12 21:24:27
#347 Mark van Heeswijk (markvh) 100 (2600) 2015-07-05 18:38:33
#348 Erik (Erox) 100 (22651) 2015-07-12 12:52:03
#349 Tradecraft (Tradecraft) 100 (5540) 2015-07-16 17:26:17
#350 sn0c (sn0c) 100 (200) 2015-08-03 21:35:25
#351 Peter Grössing (gpe) 100 (300) 2015-08-11 13:54:45
#352 Javantea (Javantea) 100 (40816) 2015-08-15 02:48:46
#353 Peter (TomBombadil) 100 (3417) 2015-08-31 12:08:01
#354 Sirius (Leznar) 100 (4552) 2015-09-08 15:13:57
#355 Joerg G. (SnifferMaster) 100 (18154) 2015-09-13 12:31:35
#356 Michael Jeffrey (empjay) 100 (3004) 2015-10-01 15:02:44
#357 J-L Morel (Rossignol) 100 (29125) 2015-10-06 15:11:43
#358 BananaJoee (BananaJoee) 100 (2515) 2015-10-06 23:06:46
#359 Martin (martinbucher) 100 (27363) 2015-10-24 14:47:36
#360 Szabó Zoltán (szabo.z87) 100 (55604) 2015-10-29 11:49:26
#361 S (Zyphe) 100 (10461) 2015-10-30 15:13:43
#362 Alain Collignon (vexilla72) 100 (87833) 2015-11-15 07:58:33
#363 Benjamin (Knorrke) 100 (1915) 2015-11-26 21:36:50
#364 Rainer (Rainer74) 100 (8417) 2015-12-04 21:38:19
#365 Joog (Joog) 100 (1208) 2015-12-07 15:57:45
#366 Andre Mueller (amueller) 100 (3215) 2015-12-19 21:38:27
#367 Andreas M (Diracspinor) 100 (600) 2015-12-21 15:04:08
#368 Dominik M. (Sgt. Pepper) 100 (97919) 2015-12-21 15:05:34
#369 T (Wagner) 100 (16887) 2015-12-22 19:40:18
#370 Marc (rcll0891) 100 (24004) 2016-01-03 17:08:13
#371 Daniel Neubacher (dneubacher) 100 (2413) 2016-01-06 17:28:57
#372 Casaubon (cfreuden) 100 (8515) 2016-01-11 10:19:21
#373 Michael (soilfront) 100 (2617) 2016-02-03 19:09:39
#374 D (devilchn) 100 (11142) 2016-02-04 16:19:19
#375 Thomas Bartscherer (Cipher) 100 (405) 2016-02-04 18:09:21
#376 Maria (julesjulchen) 100 (3019) 2016-02-22 12:58:06
#377 Peter (Garnet) 100 (14234) 2016-03-07 21:25:59
#378 Marco Manfredi (mkk9901) 100 (17686) 2016-03-09 08:59:27
#379 SMF (SMF) 100 (2208) 2016-03-12 19:34:55
#380 Lennart (Penthesilea) 100 (4110) 2016-04-16 21:15:57
#381 Wieland (wisch) 100 (6633) 2016-05-21 18:58:46
#382 Daniel Walder (ibex) 100 (14372) 2016-05-31 14:24:29
#383 Joris Diesvelt (SylverFox) 100 (4019) 2016-06-30 22:13:28
#384 Norbert Biermann (Norbert) 100 (45031) 2016-07-06 19:57:53
#385 mjustprocrastinating (kb) 100 (2116) 2016-07-15 23:30:54
#386 Benjamin Snavely (kaka) 100 (2708) 2016-08-06 21:44:42
#387 Chris Kolonko (ckolonko) 100 (900) 2016-08-09 18:47:00
#388 Martina (BonoV) 100 (3017) 2016-08-13 22:55:22
#389 Hajoe (Tintin-Muc) 100 (6923) 2016-08-14 23:15:55
#390 W.E. (NeoVenator) 100 (3005) 2016-08-20 21:04:51
#391 JoGo (JoGo) 100 (11686) 2016-08-28 15:06:32
#392 John Felix (johnf) 100 (3705) 2016-09-15 14:38:26
#393 Nicolas (nicosPavlov) 100 (151166) 2016-09-29 12:53:32
#394 Mirko Rendey (Biork) 100 (6595) 2016-10-04 12:20:00
#395 HeinzelMann (Ohm) 100 (5295) 2016-10-04 12:20:12
#396 Darchicourt (Darki) 100 (3308) 2016-10-17 13:34:08
#397 Christina Plump (1cc91) 100 (100) 2016-11-08 20:28:59
#398 Tristan1473 (Tristan1473) 100 (18914) 2016-11-09 12:20:35
#399 Michael (FoM) 100 (34465) 2016-11-16 22:07:29
#400 Julian (Lemmynator) 100 (16666) 2016-11-20 14:02:20
#401 Grigorios (grigorios) 100 (2205) 2016-12-03 22:39:28
#402 Imam Uasa (Merricx) 100 (9188) 2016-12-12 18:04:16
#403 Steffen (stmue) 100 (2911) 2016-12-16 09:32:51
#404 Meine Registrierung (TryC3) 100 (6045) 2016-12-26 17:48:34
#405 Nicholas (nichelfish) 100 (2205) 2016-12-29 19:17:27
#406 J@cK (J@cK) 100 (3800) 2017-01-20 11:30:12
#407 Rene (ion) 100 (5617) 2017-02-26 10:08:51
#408 Mir Dim (mir0soft) 100 (72404) 2017-03-10 14:18:33
#409 chris (c2) 100 (51973) 2017-03-11 12:17:45
#410 Nimsoo Sun (Nimsoosun) 100 (2518) 2017-03-13 20:27:45
#411 koaidien (koaidien) 100 (2215) 2017-03-17 02:50:52
#412 Chicken Attack (joker1569) 100 (2603) 2017-03-21 09:15:16
#413 sarah b (silva) 100 (20931) 2017-03-21 18:25:43
#414 Julian (guenni3000) 100 (500) 2017-04-01 22:52:05
#415 D3d4lu5 (D3d4lu5) 100 (273573) 2017-06-09 19:02:23
#416 Moomin (Mushmom) 100 (7674) 2017-07-14 23:56:56
#417 Akonia (Akonia12) 100 (12153) 2017-07-17 18:11:29
#418 Immo Weber (MandelToast) 100 (10061) 2017-08-05 23:37:39
#419 Godfrey Norton (Godfrey) 100 (8162) 2017-08-06 04:53:06
#420 kaktus16 (Sabine) 100 (500) 2017-08-17 14:45:44
#421 David (n1to) 100 (200) 2017-08-28 22:49:31
#422 Martin (Ehmpunkt) 100 (700) 2017-08-29 17:39:23
#423 nurnicu (nurnicu) 100 (1200) 2017-09-11 11:32:04
#424 Dennis Busch (0xDB) 100 (3693) 2017-09-24 18:26:48
#425 Andreas Zipse (zippi0815) 100 (3295) 2017-11-02 14:32:49
#426 Handrich (Handrich) 100 (3494) 2017-11-16 17:48:02
#427 nimroth (nimroth cynthor) 100 (6021) 2017-11-18 11:40:48
#428 teetrnker (teetrinker) 100 (2399) 2018-01-02 20:47:02
#429 Mihail (plexor) 100 (16827) 2018-02-01 16:08:27
#430 Julian (Ju1703) 100 (4190) 2018-02-21 10:11:25
#431 aysxdcfv (aysxdcfv) 100 (600) 2018-02-21 10:49:18
#432 ich (whoma) 100 (2299) 2018-02-21 22:32:59
#433 Jhoana Reichert (15faustino) 100 (1724) 2018-03-12 22:55:56
#434 Jrox (jrox) 100 (601) 2018-03-27 18:28:15
#435 Luciano Ignaczak (ignaczak) 100 (3390) 2018-03-30 05:02:14
#436 Steve Vaillancourt (stvai2) 100 (15041) 2018-04-28 22:30:45
#437 Lara Riegelhofer (larrow_sparrow) 100 (2798) 2018-05-12 15:05:50
#438 Eric (ExAstris) 100 (26990) 2018-05-15 20:26:44
#439 Benjamin (200611736) 100 (10186) 2018-05-28 17:37:09
#440 Christian (MarquisDeSud) 100 (7848) 2018-05-29 15:50:51
#441 Fedilia (Fedilia) 100 (4489) 2018-06-08 19:10:16
#442 Random Dude (rnd) 100 (88719) 2018-06-20 03:27:10
#443 Arbacle Clemens (arbacle) 100 (2502) 2018-07-21 23:06:47
#444 Yggi (Yggi) 100 (2295) 2018-10-02 10:20:38
#445 phoenix1204 (phoenix1204) 100 (1800) 2018-10-27 08:44:22
#446 Manfred Paul (manf) 100 (14774) 2018-11-13 22:36:07
#447 Clemens (16dombrowski) 100 (5136) 2018-12-08 14:54:26
#448 whitecowboy (whitecowboy) 100 (7446) 2018-12-21 17:24:25
#449 steven (steven18) 100 (3091) 2018-12-22 07:04:30
#450 Max (Max123) 100 (100) 2019-01-07 18:08:27
#451 Bertolo (Bertolo) 100 (7167) 2019-01-13 13:05:33
#452 Joe Doe (tr_joedoe) 100 (1600) 2019-01-20 21:03:14
#453 Kevin Weber (ThunderArmy) 100 (7783) 2019-02-05 20:45:54
#454 madness (madness) 100 (15407) 2019-02-13 06:35:00
#455 LoneWolf219 (LoneWolf219) 100 (12795) 2019-02-17 01:43:18
#456 Pierre Robier (tripleedged) 100 (5916) 2019-02-18 19:45:29
#457 Oliver H (AlfheriH) 100 (804) 2019-02-25 10:22:10
#458 Lia (Lia) 100 (6855) 2019-03-08 17:57:09
#459 Klaus (kumaus) 100 (21415) 2019-03-13 17:21:15
#460 Jurian (Jurian95) 100 (2793) 2019-03-29 19:12:05
#461 Philipp John (Menarian) 100 (1793) 2019-04-12 11:37:34
#462 r karoly (r_karoly) 100 (4078) 2019-05-05 21:08:54
#463 Mike (RogueRamblers) 100 (18569) 2019-05-16 00:56:28
#464 Aeon (dokyriak) 100 (3981) 2019-05-21 16:52:55
#465 Jeff (Fountain) 100 (7185) 2019-05-30 17:58:54
#466 ENOENT (ENOENT) 100 (13478) 2019-05-31 13:31:32
#467 Somebody (Achidutzu) 100 (2796) 2019-06-02 08:31:52
#468 Manfred (katatonius) 100 (2194) 2019-06-05 08:45:34
#469 Simon Hemmerich (simhem) 100 (3779) 2019-06-10 16:08:23
You must be logged in to solve the challenge
Pages [1] 1 Show All  
 
 
powered by the CrypTool project  CrypTool

 

   +++    [23:35 - 15.06.2019] Theofanidis solved the Level II challenge 'Homophonic Encryption — Part 3'    +++    [23:20 - 15.06.2019] Vermillion solved the Level I challenge 'Cryptanalysis Hacking Puzzles — Part 2'    +++    [22:39 - 15.06.2019] Fountain solved the Level I challenge 'Cryptanalysis Hacking Puzzles — Part 2'    +++    [18:07 - 15.06.2019] Fountain solved the Level I challenge 'Monoalphabetic substitution with camouflage — Part 1'    +++    [09:29 - 15.06.2019] hamster147 solved the Level II challenge 'Homophonic Encryption — Part 3'    +++